Regional Weather Roundup
Issued by NWS

Home | Current Version | Previous Version | Graphics & Text | Print | Product List | Glossary On
Versions: 1 2 3 4 5 6 7 8 9 10 11 12 13 14 15 16 17 18 19 20 21 22 23 24 25 26 27 28 29 30 31 32 33 34 35 36 37 38 39 40 41 42 43 44 45 46 47 48 49 50
000
ASUS43 KFSD 132210
RWRSD

WEATHER ROUNDUP FOR SOUTH DAKOTA
NATIONAL WEATHER SERVICE SIOUX FALLS SD
500 PM CDT SUN JUL 13 2014

NOTE: "FAIR" INDICATES FEW OR NO CLOUDS BELOW 12,000 FEET WITH NO
SIGNIFICANT WEATHER AND/OR OBSTRUCTIONS TO VISIBILITY.


SDZ001>005-009-010-012>017-132300-
NORTHWEST AND NORTH CENTRAL SOUTH DAKOTA

CITY           SKY/WX    TMP DP  RH WIND       PRES   REMARKS
BUFFALO          N/A     79  49  34 N24G31    30.07F
FAITH            N/A     80  53  39 NW18G30   30.09F
MOBRIDGE       SUNNY     77  47  34 NW16G23   30.02F
$$

SDZ012>016-024>037-041>051-057-063-072>074-132300-
SOUTHWEST AND SOUTH CENTRAL SOUTH DAKOTA

CITY           SKY/WX    TMP DP  RH WIND       PRES   REMARKS
RAPID CTY ARPT PTSUNNY   82  55  39 N9        30.12F
PIERRE         MOSUNNY   79  58  48 NW15      30.03
CUSTER         MOSUNNY   75  55  49 E13       30.26F
ELLSWORTH AFB  PTSUNNY   85  50  30 N13       30.12F
PHILIP         SUNNY     86  52  30 N20       30.06S
PINE RIDGE     SUNNY     84  57  39 NE10      30.12F
WINNER         FAIR      87  51  28 NW14      30.04F
$$

SDZ004>011-016>023-039-040-132300-
NORTHEAST SOUTH DAKOTA

CITY           SKY/WX    TMP DP  RH WIND       PRES   REMARKS
ABERDEEN       SUNNY     77  39  25 NW22      29.99S
WATERTOWN      SUNNY     75  43  31 NW17G24   29.98F
SISSETON         N/A     77  44  30 NW16G25   29.94F
$$

SDZ017-020-022-023-036>040-048>070-132300-
SOUTHEAST SOUTH DAKOTA

CITY           SKY/WX    TMP DP  RH WIND       PRES   REMARKS
SIOUX FALLS    MOSUNNY   83  58  42 NW16G23   29.97F
HURON          MOSUNNY   80  56  43 NW17      29.98F
CHAMBERLAIN    SUNNY     83  54  37 NW14G24   30.02F
MITCHELL       MOSUNNY   83  58  42 NW14      29.98F
YANKTON        MOSUNNY   82  63  51 SW12      29.98F
$$

ABBREVIATIONS USED IN REMARKS
   TC - TEMPERATURE IN CELSIUS
  WCI - WIND CHILL INDEX
   HX - HEAT INDEX
  VSB - VISIBILITY




USA.gov is the U.S. government's official web portal to all federal, state and local government web resources and services.